Location: Hurstbourne Priors
(51.2000°N, 1.3667°W)
Time: 09:25:15
(UTC+00:00)

Cosmos 2221 - Pass Details

Date: 09 April 2020
Orbit: 592 x 616 km, 82.5° (Epoch: 06 June)

Event Time Altitude Azimuth Distance (km) Brightness Sun altitude
Exits shadow 23:23:27 34° 317° (NW) 1,029 4.0 -30.0°
Drops below altitude 10° 23:26:37 10° 357° (N) 1,981 6.0 -30.1°
Sets 23:28:59 0° 5° (N) 2,887 7.1 -30.2°
